Meath Environmental Platform

Observations for Trim Patrick St

Time AQI Temp °C Hum % Pres Pa CO μg/m³ H₂S μg/m³ NO μg/m³ NO₂ μg/m³ O₃ μg/m³ SO₂ μg/m³ PM1 μg/m³ PM2.5 μg/m³ PM10 μg/m³
Thursday 27 August 2026
05:41 2 17 87 38,286 0.26 0.53 0.87 23.79 28.81 0 21.72 29.38 32.32
05:40 2 17 87 38,285 0.25 1.28 1.21 23.98 37.89 0 24.29 32.85 33.01
05:39 2 17 87 38,284 0.24 0.5 1.11 20.74 37.01 0 25.14 32.15 32.34
05:38 2 17 88 38,283 0.25 0.79 1.1 15.91 35.91 0 24.29 32.03 32.06
05:37 2 16.9 88 38,282 0.26 1.1 1.23 20.72 36.19 0 23.43 29.99 30.82
05:36 2 16.9 88 38,279 0.26 0.97 1.48 19.1 30.61 0 25.14 33.44 34.71
05:35 2 16.9 88 38,277 0.24 0.58 1.15 15.52 31.11 0 25.14 32.04 32.09
05:33 2 16.9 88 38,268 0.25 0.74 1.57 14.79 31.5 0 25.14 32.03 32.06
05:32 2 16.9 88 38,262 0.26 0.87 1.55 27.04 37.4 0 25.14 33.45 35.38
05:31 2 16.9 88 38,253 0.29 1.55 1.42 24.08 25.24 0 25.14 32.72 35.27
05:30 2 16.9 88 38,240 0.24 1.68 1.38 23.03 50.23 0 26.86 35.52 37.97
05:29 2 16.8 88 38,224 0.26 1.73 1.36 24.46 41.74 0 24.29 31.39 31.53
05:28 2 16.8 88 38,202 0.25 0.84 1.28 20.95 32.62 0 22.57 30.63 31.36
05:27 2 16.8 88 38,202 0.24 1.21 1.31 24.1 34.74 0 23.43 32.66 35.93
05:26 2 16.8 88 38,202 0.25 0.76 1.43 14.87 33.08 0 23.43 31.27 33.14
05:25 2 16.8 88 38,202 0.25 1.6 1.46 20.62 34.81 0 25.14 32.04 32.73
05:24 2 16.8 88 38,202 0.24 1.83 1.46 23.17 38.77 0 24.29 31.95 32.51
05:23 2 16.8 89 38,202 0.25 0.29 1.44 14.31 31.55 0 23.43 30.57 33.63
05:22 2 16.7 88 38,202 0.26 2.59 1.54 24.47 40.34 0 23.43 31.33 31.39
05:21 2 16.7 88 38,202 0.25 0.24 1.38 22.44 37.61 0 24.29 32.03 32.69